Location: Unspecified
(0.0000°N, 0.0000°E)
Time: 09:55:28
(UTC+02:00)

Sapphire - Visible Passes

Search period start: 19 April 2015 00:00
Search period end: 29 April 2015 00:00
Orbit: 786 x 796 km, 67.1° (Epoch: 18 April)

Date Brightness Start Highest point End Pass type
(mag) Time Alt. Az. Time Alt. Az. Time Alt. Az.
19 Apr ? 21:08:23 10° NNE 21:12:02 22° ENE 21:12:02 22° ENE visible
19 Apr ? 22:51:24 10° WNW 22:52:51 16° WNW 22:52:51 16° WNW visible
20 Apr ? 20:39:07 10° NE 20:41:49 14° ENE 20:43:27 13° E visible
20 Apr ? 22:20:14 10° NW 22:24:16 34° W 22:24:16 34° W visible
21 Apr ? 21:49:21 10° NNW 21:54:38 56° WSW 21:55:48 46° SSW visible
22 Apr ? 21:18:44 10° NNW 21:24:08 87° WSW 21:27:24 25° SSE visible
23 Apr ? 20:48:19 10° N 20:53:37 61° ENE 20:58:56 10° SSE visible
24 Apr ? 20:18:08 10° N 20:23:05 39° ENE 20:28:06 10° SE visible
24 Apr ? 22:03:43 10° W 22:06:28 13° WSW 22:08:50 10° SW visible
25 Apr ? 21:31:46 10° WNW 21:35:51 21° WSW 21:39:44 10° SSW visible
26 Apr ? 21:00:28 10° NW 21:05:16 32° WSW 21:09:59 10° S visible
27 Apr ? 20:29:31 10° NW 20:34:43 49° WSW 20:39:55 10° S visible
28 Apr ? 07:23:04 10° S 07:27:52 33° ESE 07:32:45 10° NE visible
